Tracking 19831 objects as of 23-Aug-2019
HD Live streaming from Space Station
objects crossing your sky now

COSMOS 2251 DEB

Track COSMOS 2251 DEB now!
10-day predictions


NORAD ID: 34561
Int'l Code: 1993-036UX
Perigee: 686.8 km
Apogee: 748.2 km
Inclination: 74.0 °
Period: 99.0 minutes
Semi major axis: 7088 km
RCS: 0.028 m2 (small)
Launch date: June 16, 1993
Source: Commonwealth of Independent States (former USSR) (CIS)
Launch site: PLESETSK MISSILE AND SPACE COMPLEX (PKMTR)

Note: This is SATELLITE DEBRIS
aabbcc
Your satellite tracking list
Your tracking list is empty




NASA's NSSDC Master Catalog

Two Line Element Set (TLE):
1 34561U 93036UX  19234.85153722 +.00000642 +00000-0 +15517-3 0  9996
2 34561 074.0332 052.2675 0043325 356.4248 003.6599 14.54682913552025
Source of the keplerian elements: AFSPC